Flag for Canada Weather past 2 weeks in Qikiqtarjuaq, Nunavut Territory, Canada

Now
39 °F

Cloudy.


Feels Like: 28 °F
Forecast: 37 / 45 °F
Wind: 24 mph from Northeast

Location: Broughton Island Airport

Current Time: Aug 30, 2014 at 1:13:36 PM

Latest Report: Aug 30, 2014 at 12:00 PM


Visibility: 15 mi

Pressure: 29.57 "Hg

Humidity: 87%

Dew point: 36 °F

Location of QikiqtarjuaqLocation

Historic Weather in Qikiqtarjuaq — Graph

°F

Qikiqtarjuaq temperature yesterday

Maximum temperature yesterday: 37 °F (at 12:00 AM)
Minimum temperature yesterday: 34 °F (at 4:00 AM)
Average temperature yesterday: 35 °F

Past Weeks' High & Low Weather Summary

 TemperatureHumidityPressure
High63 °F (Aug 19, 11:00 AM)100% (Aug 17, 5:00 PM)30.35 "Hg (Aug 17, 5:00 PM)
Low34 °F (Aug 24, 5:00 AM)49% (Aug 19, 11:00 AM)29.47 "Hg (Aug 16, 3:00 AM)
Average42 °F85%29.91 "Hg
* Reported Aug 15 12:00 Noon — Aug 30 12:00 Noon, Qikiqtarjuaq, Weather by CustomWeather, © 2014

Note: Actual official high and low records may vary slightly from our data, if they occured in-between our weather recording intervals... More about our weather records

Advertising

Qikiqtarjuaq weather history for previous 24 hours

 ConditionsComfort  
Time TempWeatherWind HumidityBarometerVisibility
12:00 PM
Aug 30
39 °FCloudy.24 mph87%29.57 "Hg15 mi
11:00 AM39 °FMore clouds than sun.22 mph87%29.58 "Hg15 mi
10:00 AM39 °FMore clouds than sun.26 mph87%29.59 "Hg9 mi
9:00 AM39 °FCloudy.20 mph87%29.62 "Hg8 mi
8:00 AM39 °FMore clouds than sun.21 mph87%29.63 "Hg10 mi
7:00 AM39 °FScattered clouds.15 mph87%29.63 "Hg9 mi
6:00 AM39 °FPartly sunny.10 mph81%29.64 "Hg9 mi
5:55 AM39 °FBroken clouds.10 mph81%29.64 "Hg9 mi
5:00 AM39 °FPassing clouds.16 mph81%29.65 "Hg9 mi
4:00 AM39 °FPassing clouds.17 mph81%29.66 "Hg9 mi
3:00 AM39 °FPassing clouds.18 mph81%29.67 "Hg9 mi
2:00 AM37 °FMostly cloudy.14 mph87%29.68 "Hg9 mi
1:00 AM37 °FMostly cloudy.13 mph87%29.70 "Hg9 mi
12:00 AM37 °FMostly cloudy.3 mph87%29.71 "Hg9 mi
11:00 PM
Aug 29
37 °FOvercast.10 mph87%29.72 "Hg9 mi
10:51 PM37 °FMostly cloudy.12 mph87%29.73 "Hg9 mi
10:00 PM37 °FMostly cloudy.9 mph87%29.75 "Hg9 mi
9:00 PM37 °FOvercast.12 mph87%29.76 "Hg9 mi
8:00 PM36 °FLow clouds.5 mph93%29.76 "Hg9 mi
7:00 PM36 °FLow clouds.6 mph87%29.77 "Hg9 mi
6:00 PM36 °FPartly sunny.6 mph87%29.79 "Hg9 mi
5:00 PM36 °FFog.8 mph93%29.80 "Hg6 mi
3:00 PM36 °FFog.7 mph93%29.81 "Hg4 mi
2:00 PM36 °FFog.5 mph100%29.82 "Hg4 mi
1:00 PM37 °FFog.7 mph93%29.83 "Hg4 mi
Weather by CustomWeather, © 2014

See weather overviewHow to use our weather pages